When you browse on this site, cookies collect data to enhance your experience and personalize the content and advertising you see.
Visit our Privacy Policy to learn more. By continuing to use the site, you agree to this use of cookies and data.
  • In United Kingdom
  • List of Countries
  • For 7 days
  • Water Temperature
  • Satellite Maps
  • Weather Map
  • Weather Widgets
  • user-avatar
    Login

    Hourly Weather Manika

    Today, 24 March, Sunday

    Time Temperature Precipitation Wind Pressure Humidity
    00:00 +19°C° 0 mm 1 mps 679 mmHg 98%
    01:00 +19°C° 0 mm 1 mps 679 mmHg 98%
    02:00 +19°C° 0 mm 1 mps 679 mmHg 98%
    03:00 +19°C° 0 mm 1 mps 679 mmHg 97%
    04:00 +19°C° 0 mm 1 mps 679 mmHg 97%
    05:00 +19°C° 0 mm 1 mps 679 mmHg 96%
    06:00 +20°C° 0 mm 1 mps 680 mmHg 91%
    07:00 +21°C° 0 mm 1 mps 680 mmHg 87%
    08:00 +22°C° 0 mm 1 mps 681 mmHg 80%
    09:00 +24°C° 0 mm 1 mps 681 mmHg 73%
    10:00 +25°C° 0 mm 2 mps 681 mmHg 65%
    11:00 +26°C° 0 mm 2 mps 681 mmHg 57%
    12:00 +27°C° 0 mm 2 mps 680 mmHg 55%
    13:00 +28°C° 0 mm 2 mps 680 mmHg 53%
    14:00 +29°C° 0 mm 2 mps 679 mmHg 51%
    15:00 +28°C° 0 mm 2 mps 679 mmHg 56%
    16:00 +27°C° 0 mm 2 mps 679 mmHg 61%
    17:00 +27°C° 0 mm 1 mps 678 mmHg 65%
    18:00 +25°C° 0 mm 1 mps 678 mmHg 73%
    19:00 +23°C° 0 mm 1 mps 678 mmHg 80%
    20:00 +21°C° 0 mm 1 mps 678 mmHg 87%
    21:00 +20°C° 0 mm 1 mps 678 mmHg 90%
    22:00 +20°C° 0 mm 1 mps 679 mmHg 93%
    23:00 +18°C° 0 mm 0 mps 679 mmHg 95%

    Tomorrow, 25 March, Monday

    Time Temperature Precipitation Wind Pressure Humidity
    00:00 +17°C° 0 mm 0 mps 678 mmHg 96%
    01:00 +17°C° 0 mm 0 mps 678 mmHg 96%
    02:00 +17°C° 0 mm 0 mps 678 mmHg 96%
    03:00 +17°C° 0 mm 0 mps 678 mmHg 97%
    04:00 +16°C° 0 mm 0 mps 677 mmHg 97%
    05:00 +18°C° 0 mm 1 mps 677 mmHg 97%
    06:00 +18°C° 0 mm 0 mps 678 mmHg 91%
    07:00 +20°C° 0 mm 0 mps 678 mmHg 85%
    08:00 +21°C° 0 mm 0 mps 679 mmHg 79%
    09:00 +26°C° 0 mm 1 mps 679 mmHg 69%
    10:00 +28°C° 0 mm 1 mps 679 mmHg 59%
    11:00 +30°C° 0 mm 1 mps 680 mmHg 48%
    12:00 +30°C° 0 mm 1 mps 679 mmHg 46%
    13:00 +31°C° 0 mm 1 mps 679 mmHg 43%
    14:00 +31°C° 0 mm 2 mps 678 mmHg 41%
    15:00 +30°C° 0 mm 1 mps 678 mmHg 45%
    16:00 +29°C° 0 mm 1 mps 677 mmHg 50%
    17:00 +28°C° 0 mm 1 mps 677 mmHg 55%
    18:00 +26°C° 0 mm 1 mps 677 mmHg 62%
    19:00 +24°C° 0 mm 1 mps 677 mmHg 69%
    20:00 +22°C° 0 mm 1 mps 677 mmHg 76%
    21:00 +21°C° 0 mm 1 mps 677 mmHg 81%
    22:00 +21°C° 0 mm 1 mps 677 mmHg 85%
    23:00 +20°C° 0 mm 1 mps 677 mmHg 89%

    Day after tomorrow, 26 March, Tuesday

    Time Temperature Precipitation Wind Pressure Humidity
    00:00 +20°C° 0 mm 1 mps 677 mmHg 90%
    01:00 +20°C° 0 mm 1 mps 677 mmHg 91%
    02:00 +19°C° 0 mm 1 mps 676 mmHg 91%
    03:00 +19°C° 0 mm 1 mps 676 mmHg 90%
    04:00 +19°C° 0 mm 1 mps 676 mmHg 90%
    05:00 +18°C° 0 mm 1 mps 676 mmHg 89%
    06:00 +19°C° 0 mm 0 mps 677 mmHg 81%
    07:00 +21°C° 0 mm 0 mps 678 mmHg 74%
    08:00 +23°C° 0 mm 0 mps 679 mmHg 66%
    09:00 +25°C° 0 mm 0 mps 680 mmHg 59%
    10:00 +28°C° 0 mm 1 mps 680 mmHg 51%
    11:00 +30°C° 0 mm 2 mps 681 mmHg 44%
    12:00 +31°C° 0 mm 2 mps 680 mmHg 43%
    13:00 +31°C° 0 mm 3 mps 680 mmHg 43%
    14:00 +31°C° 0 mm 3 mps 679 mmHg 42%
    15:00 +30°C° 0 mm 3 mps 679 mmHg 48%
    16:00 +29°C° 0 mm 2 mps 679 mmHg 55%
    17:00 +28°C° 0 mm 2 mps 679 mmHg 61%
    18:00 +26°C° 0 mm 2 mps 679 mmHg 70%
    19:00 +23°C° 0 mm 2 mps 679 mmHg 78%
    20:00 +21°C° 0 mm 1 mps 680 mmHg 87%
    21:00 +21°C° 0 mm 1 mps 680 mmHg 90%
    22:00 +21°C° 0 mm 1 mps 680 mmHg 92%
    23:00 +20°C° 0 mm 1 mps 681 mmHg 95%

    27 March, Wednesday

    Time Temperature Precipitation Wind Pressure Humidity
    00:00 +20°C° 0 mm 1 mps 681 mmHg 96%
    01:00 +20°C° 0 mm 1 mps 680 mmHg 96%
    02:00 +18°C° 0 mm 0 mps 680 mmHg 97%
    03:00 +18°C° 0 mm 0 mps 680 mmHg 97%
    04:00 +18°C° 0 mm 0 mps 680 mmHg 97%
    05:00 +18°C° 0 mm 0 mps 680 mmHg 96%
    06:00 +19°C° 0 mm 0 mps 681 mmHg 91%
    07:00 +23°C° 0 mm 1 mps 682 mmHg 86%
    08:00 +24°C° 0 mm 1 mps 683 mmHg 81%
    09:00 +25°C° 0.1 mm 1 mps 683 mmHg 75%
    10:00 +26°C° 0.1 mm 2 mps 683 mmHg 70%
    11:00 +27°C° 0.1 mm 2 mps 683 mmHg 64%
    12:00 +28°C° 0.5 mm 2 mps 683 mmHg 63%
    13:00 +28°C° 0.5 mm 2 mps 682 mmHg 62%
    14:00 +29°C° 0.5 mm 2 mps 681 mmHg 61%
    15:00 +27°C° 1 mm 2 mps 681 mmHg 67%
    16:00 +26°C° 1 mm 2 mps 681 mmHg 74%
    17:00 +25°C° 1 mm 2 mps 681 mmHg 81%
    18:00 +24°C° 0.5 mm 1 mps 682 mmHg 86%
    19:00 +22°C° 0.5 mm 1 mps 682 mmHg 91%
    20:00 +21°C° 0.5 mm 1 mps 682 mmHg 96%
    21:00 +20°C° 0 mm 1 mps 682 mmHg 97%
    22:00 +20°C° 0 mm 1 mps 682 mmHg 97%
    23:00 +20°C° 0 mm 1 mps 682 mmHg 98%

    28 March, Thursday

    Time Temperature Precipitation Wind Pressure Humidity
    00:00 +20°C° 0 mm 1 mps 682 mmHg 98%
    01:00 +20°C° 0 mm 1 mps 681 mmHg 98%
    02:00 +19°C° 0 mm 1 mps 681 mmHg 98%
    03:00 +19°C° 0 mm 1 mps 681 mmHg 98%
    04:00 +17°C° 0 mm 0 mps 681 mmHg 97%
    05:00 +18°C° 0 mm 0 mps 681 mmHg 97%
    06:00 +18°C° 0 mm 0 mps 681 mmHg 93%
    07:00 +19°C° 0 mm 0 mps 682 mmHg 88%
    08:00 +20°C° 0 mm 0 mps 682 mmHg 84%
    09:00 +25°C° 0 mm 1 mps 682 mmHg 74%
    10:00 +27°C° 0 mm 1 mps 683 mmHg 65%
    11:00 +29°C° 0 mm 1 mps 683 mmHg 55%
    12:00 +30°C° 0 mm 1 mps 682 mmHg 53%
    13:00 +30°C° 0 mm 1 mps 681 mmHg 50%
    14:00 +31°C° 0 mm 2 mps 680 mmHg 47%
    15:00 +30°C° 0 mm 2 mps 680 mmHg 53%
    16:00 +29°C° 0 mm 2 mps 680 mmHg 59%
    17:00 +28°C° 0 mm 2 mps 680 mmHg 65%
    18:00 +26°C° 0 mm 2 mps 680 mmHg 72%
    19:00 +24°C° 0 mm 1 mps 680 mmHg 80%
    20:00 +22°C° 0 mm 1 mps 680 mmHg 88%
    21:00 +21°C° 0 mm 1 mps 679 mmHg 90%
    22:00 +21°C° 0 mm 1 mps 679 mmHg 92%
    23:00 +20°C° 0 mm 1 mps 679 mmHg 95%

    29 March, Friday

    Time Temperature Precipitation Wind Pressure Humidity
    00:00 +20°C° 0 mm 1 mps 679 mmHg 95%
    01:00 +20°C° 0 mm 1 mps 679 mmHg 95%
    02:00 +19°C° 0 mm 1 mps 678 mmHg 95%
    03:00 +17°C° 0 mm 0 mps 678 mmHg 95%
    04:00 +17°C° 0 mm 0 mps 678 mmHg 94%
    05:00 +17°C° 0 mm 0 mps 678 mmHg 94%
    06:00 +19°C° 0 mm 0 mps 679 mmHg 87%
    07:00 +21°C° 0 mm 0 mps 680 mmHg 80%
    08:00 +23°C° 0 mm 0 mps 681 mmHg 73%
    09:00 +24°C° 0 mm 0 mps 681 mmHg 65%
    10:00 +28°C° 0 mm 1 mps 681 mmHg 56%
    11:00 +30°C° 0 mm 1 mps 681 mmHg 48%
    12:00 +30°C° 0 mm 2 mps 681 mmHg 46%
    13:00 +31°C° 0 mm 2 mps 680 mmHg 44%
    14:00 +31°C° 0 mm 2 mps 680 mmHg 42%
    15:00 +30°C° 0 mm 2 mps 680 mmHg 48%
    16:00 +29°C° 0 mm 2 mps 679 mmHg 55%
    17:00 +27°C° 0 mm 2 mps 679 mmHg 61%
    18:00 +25°C° 0 mm 2 mps 679 mmHg 69%
    19:00 +23°C° 0 mm 1 mps 679 mmHg 77%
    20:00 +21°C° 0 mm 1 mps 679 mmHg 85%
    21:00 +21°C° 0 mm 1 mps 679 mmHg 88%
    22:00 +20°C° 0 mm 1 mps 679 mmHg 91%
    23:00 +20°C° 0 mm 1 mps 679 mmHg 94%
    Show more